Theta_e
316 310 310 308 299 295 288 291 292 295 295 297 301 303 304 306 305 298 321 336 339 341 344 346 348 347 347 345 345 344 344 341 341 342 341 341 345 343 340 338 337 337 337 337 339 338 339 339 338
313 313 308 300 293 287 287 292 293 295 299 300 302 302 304 307 313 323 329 337 340 342 345 346 344 346 346 345 345 344 343 341 340 340 340 344 344 342 340 337 336 336 336 337 338 338 338 337 338
313 310 302 296 290 287 288 292 296 297 299 299 298 303 306 308 313 325 334 338 341 342 344 344 344 347 346 344 344 343 343 341 339 340 340 342 343 341 338 336 335 335 335 337 337 339 337 337 336
308 303 298 292 289 291 294 296 297 296 297 300 301 303 308 315 321 328 337 339 340 342 343 342 345 347 345 345 344 343 342 339 339 339 339 339 340 339 336 334 333 333 334 336 335 335 337 337 337
303 298 292 289 289 292 293 297 297 296 296 296 301 300 308 321 324 335 336 337 337 340 342 343 344 345 345 344 343 342 341 339 338 338 338 337 337 335 333 331 331 332 332 334 334 334 334 334 333
298 296 289 287 289 293 294 298 298 296 297 297 299 304 308 320 328 331 335 335 339 339 341 343 338 340 342 343 342 341 340 339 337 337 336 335 335 333 331 329 329 330 331 332 333 333 333 333 331
298 292 289 289 290 293 297 297 297 296 297 298 301 302 307 315 327 330 335 338 339 339 340 341 341 339 336 338 338 338 338 337 336 337 336 335 334 333 330 329 329 329 330 331 331 331 330 330 328
298 295 289 290 291 292 295 296 297 297 297 300 303 302 304 313 324 329 335 337 338 339 340 339 339 339 338 336 332 333 335 334 334 333 331 329 329 329 328 326 328 328 329 330 329 329 328 327 325
298 291 288 290 291 292 295 295 296 298 299 298 301 304 307 316 323 325 326 330 336 337 339 339 338 338 337 334 330 329 330 330 330 328 325 322 321 320 320 323 327 328 328 328 327 326 324 321 320
294 290 291 291 291 292 296 295 297 295 295 295 302 308 312 318 320 321 321 326 327 331 335 338 338 337 336 335 330 329 329 329 327 324 322 322 321 320 320 320 324 326 325 325 324 322 317 312 308
293 291 293 293 294 295 295 294 296 295 292 297 300 307 314 317 317 319 318 327 328 331 334 336 337 337 336 335 332 331 328 326 326 325 325 322 320 318 317 315 315 315 313 311 311 309 308 307 306
291 294 294 297 297 296 294 295 293 295 297 298 300 311 315 317 317 318 318 320 325 328 332 335 336 337 336 336 332 332 328 326 324 324 325 321 321 318 314 313 311 310 310 306 304 304 303 303 303
292 293 295 296 296 295 295 293 293 294 297 296 300 308 313 316 318 318 320 319 324 327 331 333 334 335 336 335 334 332 330 326 324 322 321 322 321 318 316 312 310 309 308 305 303 301 300 299 299
294 294 294 296 295 295 293 291 292 294 294 295 300 304 310 312 314 314 317 319 320 328 329 333 332 334 335 334 334 332 330 328 323 323 321 322 321 319 317 312 311 310 309 304 301 298 296 294 296
295 291 293 293 294 294 294 290 292 293 295 293 296 298 302 310 311 314 318 320 321 326 329 331 332 333 334 333 334 332 330 329 325 323 322 321 322 319 317 314 311 309 306 300 297 293 292 291 291
290 289 284 290 294 294 291 286 292 294 294 294 294 292 297 300 306 313 315 317 319 321 326 329 332 332 333 332 333 333 331 329 326 323 323 322 321 320 317 314 312 310 302 299 295 293 290 289 288
287 282 285 289 293 293 290 287 292 294 292 293 293 294 294 294 297 300 308 314 316 319 323 326 330 330 332 332 332 333 332 330 328 326 323 322 322 319 316 313 311 308 301 297 295 292 290 288 287
284 283 284 284 291 290 288 289 293 294 292 293 293 294 294 295 297 299 299 306 312 315 320 326 328 328 331 330 331 332 331 331 330 328 325 324 322 318 312 309 309 306 300 297 294 291 289 288 288
286 285 283 286 292 290 289 289 291 293 292 292 292 292 293 295 300 299 299 300 302 309 317 322 325 325 326 326 325 325 326 320 325 328 325 323 321 316 312 310 308 306 301 297 294 291 289 287 287
286 284 283 288 290 290 287 288 290 292 293 294 296 295 294 293 294 298 298 297 299 308 317 321 324 322 324 326 326 320 314 311 311 312 320 323 318 315 311 309 308 306 301 296 293 291 289 288 288
285 284 284 286 287 286 286 285 287 289 291 293 294 297 297 294 293 295 296 296 296 306 314 319 322 321 323 317 310 306 307 306 307 306 307 309 318 314 311 310 309 307 302 296 292 291 290 287 288
283 289 288 287 284 280 284 279 283 288 290 291 293 293 294 294 294 295 296 296 296 304 312 318 319 320 316 312 314 311 311 310 308 307 305 305 307 311 310 309 309 307 304 298 294 293 292 289 287
287 290 287 285 283 281 280 280 282 285 287 290 292 293 292 293 295 296 296 297 297 305 310 314 315 315 312 312 314 312 310 312 306 305 305 303 302 304 305 306 306 306 305 300 296 292 291 291 290
292 289 287 285 282 277 281 281 279 283 288 288 292 293 293 294 293 294 296 297 298 300 306 310 312 311 311 310 309 313 313 308 304 302 303 302 300 299 300 302 304 304 304 301 297 294 293 292 292
288 284 277 276 276 276 281 280 283 287 291 291 294 295 294 293 294 295 295 296 298 298 301 305 308 306 307 306 306 306 308 307 306 304 303 299 297 295 297 299 300 301 302 301 298 295 293 292 291
286 285 279 272 274 277 281 278 284 290 292 293 295 295 294 293 294 293 294 296 298 299 299 301 303 303 304 303 302 302 303 301 300 299 297 300 300 299 298 297 298 298 299 299 297 295 294 293 292
287 284 287 281 272 275 280 284 289 292 294 293 294 294 293 292 294 294 294 295 296 298 299 300 300 301 301 301 300 299 299 298 297 295 294 294 292 291 293 296 295 295 296 295 296 294 293 292 292
289 291 283 282 273 272 277 279 283 287 289 292 293 292 292 292 293 294 295 295 296 296 298 298 299 299 299 300 299 298 297 297 296 294 292 291 290 289 288 290 292 292 293 293 293 293 292 290 291
287 285 286 286 282 276 274 278 286 289 291 291 292 293 292 292 293 293 293 294 295 295 296 296 297 297 298 298 298 297 296 295 294 293 292 290 288 287 286 287 287 289 290 290 290 291 290 290 290
288 287 288 281 278 280 280 281 291 290 291 292 291 292 292 293 292 292 293 293 293 294 294 295 295 296 297 297 296 296 295 293 292 290 290 288 287 285 285 285 286 287 287 288 289 288 289 289 288
Wind_Speed
5 5 3 6 5 6 1 1 2 2 2 1 2 7 8 3 3 4 1 10 17 13 10 11 13 15 15 15 13 12 12 14 15 14 16 14 16 19 19 19 17 17 18 18 20 20 20 21 23
3 3 6 3 6 4 5 2 3 1 5 5 6 4 5 1 2 6 6 11 19 13 11 11 12 14 15 14 13 13 13 14 14 14 16 15 16 19 18 18 17 17 18 18 19 19 18 21 21
1 4 5 5 4 5 5 2 6 2 2 2 3 5 5 3 2 7 9 14 16 12 10 11 12 14 16 14 14 13 13 14 15 15 16 15 17 18 18 17 16 17 17 18 19 19 21 20 20
3 6 5 6 1 1 8 7 6 5 2 3 4 6 3 4 8 7 15 16 15 12 10 12 13 15 15 15 14 13 13 14 15 14 16 15 16 18 17 16 16 16 17 17 19 19 17 19 21
5 3 4 3 2 1 1 6 7 4 4 2 3 4 2 4 1 15 15 14 14 11 10 11 13 15 15 15 15 14 14 14 14 14 15 15 15 16 16 16 16 16 16 17 19 18 17 21 21
4 4 5 2 2 2 2 6 7 4 3 3 6 4 4 2 8 8 12 13 14 13 11 11 11 12 14 15 15 14 14 14 15 15 15 15 15 16 16 16 16 16 16 18 18 19 20 21 21
6 4 4 6 3 3 5 6 8 7 7 4 9 5 3 2 5 8 10 12 12 12 11 10 10 11 11 12 13 13 14 14 14 14 14 13 14 15 15 15 16 17 17 18 19 20 20 21 21
5 5 3 1 3 3 3 3 6 6 6 2 7 6 5 7 8 8 8 11 13 12 12 11 9 9 8 9 12 12 13 13 13 14 13 12 12 13 12 11 15 17 18 19 19 20 20 20 20
3 6 2 2 3 3 2 3 1 2 6 3 1 8 5 12 8 8 5 4 10 12 13 11 11 8 7 6 8 10 11 11 12 12 13 10 6 7 8 9 14 16 17 19 19 19 20 20 20
5 4 7 1 2 3 3 2 6 4 3 1 2 4 5 11 8 11 9 9 7 10 13 13 12 12 8 7 6 5 6 6 6 6 7 5 6 6 6 8 12 13 15 16 17 17 17 13 6
3 6 5 1 0 1 1 1 2 7 3 7 10 7 9 7 10 12 8 11 13 11 10 14 14 13 13 8 6 4 3 3 4 9 8 6 5 5 4 3 3 4 7 4 7 7 6 8 6
4 4 4 5 2 1 3 1 2 5 8 4 9 15 12 15 15 15 12 10 10 11 12 14 15 13 13 10 7 7 5 4 4 6 9 8 5 7 5 4 4 4 3 6 5 5 6 9 9
4 3 4 5 5 4 1 3 5 7 8 3 6 9 14 14 14 10 12 7 8 11 12 13 13 13 12 12 9 8 8 6 6 5 6 8 8 7 7 6 5 4 4 6 6 7 6 7 8
5 3 1 4 4 3 4 2 2 7 4 6 7 13 14 14 16 7 7 11 11 13 13 13 14 13 13 12 14 10 9 9 6 6 6 8 8 7 6 6 4 5 6 5 6 7 7 6 6
3 2 5 4 5 3 3 6 9 5 4 1 9 9 10 13 9 15 17 15 14 12 14 14 15 13 13 13 15 12 9 10 8 8 9 8 9 9 9 6 5 4 5 10 8 7 7 8 7
3 5 2 3 6 2 4 9 7 6 7 10 8 8 9 12 13 15 12 13 10 11 14 15 12 14 15 13 11 11 9 9 9 8 8 10 9 10 9 8 7 8 7 6 7 6 7 7 6
5 3 4 6 5 3 4 7 5 3 4 6 7 8 10 10 10 12 11 14 13 14 15 15 14 15 16 14 11 12 12 10 9 9 9 11 10 10 9 8 7 9 7 7 7 4 5 8 7
6 3 4 4 5 2 3 10 11 8 2 10 9 10 10 10 15 14 14 15 12 12 13 16 14 15 15 10 9 8 8 9 9 10 10 13 10 12 9 7 9 8 7 8 8 7 4 6 9
5 4 2 3 4 5 8 9 12 9 8 10 11 12 12 14 15 9 10 13 9 7 10 14 16 12 11 9 10 9 9 4 6 8 12 14 10 11 12 9 10 8 10 9 10 9 11 6 10
3 4 4 5 0 4 4 11 11 8 9 12 16 14 16 8 6 11 10 9 11 14 16 14 16 14 13 11 9 4 4 3 2 3 6 11 12 12 12 13 11 12 10 12 12 14 7 4 9
5 6 5 7 3 3 4 9 8 7 6 7 11 17 14 11 11 11 10 10 9 11 14 15 15 15 13 10 8 4 5 4 3 1 2 2 10 12 13 13 12 13 11 12 15 14 16 8 9
5 5 5 3 3 4 2 10 5 5 10 7 12 11 14 10 7 7 9 8 10 13 8 9 11 13 9 11 10 8 6 6 3 4 2 3 4 9 12 14 13 14 10 12 14 13 10 9 13
7 4 5 3 2 1 1 3 8 3 6 12 12 12 11 9 9 10 9 7 6 7 8 8 8 9 9 10 10 7 5 4 3 3 6 4 4 5 6 10 12 13 10 13 14 13 12 11 9
7 6 8 5 3 5 8 8 4 5 8 5 6 9 9 2 3 4 4 4 4 5 7 7 8 8 9 9 7 9 9 7 5 4 5 5 4 4 5 6 8 9 10 12 13 13 14 11 8
5 7 3 3 1 9 3 3 6 6 8 8 8 7 4 3 5 4 6 4 4 6 7 6 7 5 6 8 8 8 8 9 11 9 7 7 5 3 7 8 7 7 9 9 10 11 13 13 12
9 10 9 10 6 5 4 9 8 10 8 9 7 7 4 4 1 2 3 4 4 4 5 5 7 5 6 7 6 6 6 4 5 6 5 6 7 8 8 9 8 7 8 9 10 9 10 11 11
7 8 6 5 2 4 6 7 9 8 10 6 8 6 4 2 2 4 2 1 2 3 3 5 6 5 5 6 6 6 5 6 6 7 6 4 4 4 6 9 9 9 8 9 10 9 11 10 11
7 9 4 2 3 4 6 6 8 4 3 5 9 10 4 3 3 2 1 1 0 2 3 3 3 6 5 6 6 5 6 6 6 5 7 7 6 6 7 7 8 8 8 8 9 8 7 9 8
4 5 4 6 6 7 3 8 6 5 4 4 5 6 5 3 2 2 2 1 1 0 2 2 2 3 4 5 5 6 6 6 6 5 6 6 5 7 7 8 7 8 9 9 9 8 8 11 9
1 5 9 6 5 5 4 9 2 3 3 6 4 5 4 2 1 1 1 1 1 2 1 2 2 3 4 5 6 6 5 6 6 6 6 6 7 6 6 6 6 8 8 9 10 9 9 11 11
Wind_Direction
334 329 75 44 59 65 272 223 153 128 51 347 67 116 130 70 126 199 251 154 134 144 151 145 138 130 123 121 117 116 109 106 102 102 97 95 99 96 92 89 88 87 86 89 88 81 75 84 90
327 36 45 79 85 71 270 283 114 242 169 117 89 89 50 104 124 116 95 153 139 144 148 143 139 135 128 124 127 120 115 111 108 108 102 95 95 98 93 91 91 88 88 90 86 78 85 87 86
339 51 85 95 106 169 182 206 157 162 101 95 88 64 130 169 95 147 138 148 135 141 144 145 143 145 134 134 124 122 118 116 113 112 107 99 95 96 94 92 90 88 89 93 88 78 98 90 90
60 16 30 85 293 222 160 188 194 124 49 60 118 72 43 234 157 143 141 145 134 142 141 148 146 143 140 135 131 128 125 120 116 114 110 107 100 100 100 99 96 94 91 91 88 79 83 90 89
38 61 68 80 269 50 180 173 174 119 152 140 126 167 56 340 44 140 144 146 140 143 145 150 148 145 142 140 138 134 129 125 122 119 116 114 111 109 107 103 99 96 96 95 85 79 85 91 88
39 94 68 124 302 152 224 189 139 125 163 171 78 96 184 307 134 147 147 144 144 147 152 154 149 147 146 145 142 139 134 131 129 126 123 120 117 114 110 107 105 101 99 95 85 83 91 88 84
111 82 176 172 215 161 182 163 136 162 155 209 153 99 305 297 194 132 146 136 143 148 151 153 154 152 148 147 144 143 140 137 135 131 125 119 116 116 114 111 110 107 106 96 92 90 89 88 84
105 93 131 224 152 222 187 151 132 138 216 122 143 167 190 221 193 123 143 143 148 156 157 153 153 154 152 154 148 146 143 141 137 124 116 110 105 106 106 106 112 112 106 104 99 97 93 86 80
103 69 165 201 160 192 153 145 62 134 113 70 6 153 213 156 156 119 125 131 161 163 157 159 158 157 152 149 156 146 146 141 132 129 125 113 113 108 104 116 118 119 114 109 105 103 96 86 78
90 113 199 234 204 186 173 167 150 122 115 84 20 33 106 142 166 159 169 181 179 166 165 163 163 163 154 157 153 147 150 150 145 136 130 123 122 118 115 115 122 124 120 107 107 102 90 76 64
167 169 204 193 192 77 135 87 214 123 201 206 190 171 159 162 180 180 185 191 188 170 173 171 167 172 160 160 163 158 155 138 148 153 141 126 119 112 105 104 103 98 72 74 80 78 72 76 76
137 200 178 177 164 118 175 314 240 186 212 220 184 169 167 175 188 194 191 190 181 179 178 174 175 172 167 165 172 168 164 158 166 171 150 139 144 140 136 137 130 103 91 91 83 79 80 79 75
157 214 161 155 162 171 186 231 240 252 240 259 123 160 182 187 200 206 204 182 180 187 184 180 177 176 172 170 172 172 171 174 173 148 165 154 158 162 155 156 142 127 117 113 102 98 91 80 81
181 190 156 183 184 166 178 249 134 270 235 207 165 194 198 196 202 193 201 201 192 192 192 184 181 183 174 175 175 177 174 171 169 163 176 172 162 162 157 153 143 134 132 110 115 117 108 92 92
112 122 338 221 194 206 142 294 231 245 335 259 203 213 222 222 199 204 205 208 197 199 190 190 186 182 177 182 179 179 179 167 178 180 176 177 168 164 157 147 141 134 121 121 115 106 106 102 92
92 53 110 301 139 217 129 262 275 261 225 250 251 229 236 235 221 222 210 209 202 189 192 192 188 186 182 181 182 181 177 176 181 181 177 176 170 169 160 162 160 149 137 131 128 133 115 102 100
4 187 201 309 205 135 158 257 266 56 121 267 256 256 232 245 246 235 223 217 204 195 192 193 189 187 185 185 179 184 182 184 184 180 182 182 173 163 164 162 153 148 137 133 133 111 117 117 102
197 208 236 225 208 114 187 265 279 274 279 265 269 260 250 248 239 227 220 220 213 198 193 191 189 187 182 176 175 181 179 190 183 183 185 184 180 163 149 144 148 145 141 135 127 123 111 127 121
153 180 195 245 209 154 218 257 263 278 308 284 258 252 247 237 242 237 229 219 210 197 186 190 187 176 163 168 173 186 182 167 181 184 181 178 175 172 162 160 155 156 152 153 143 130 138 126 130
171 193 253 289 263 159 275 261 257 254 244 235 256 256 249 248 227 245 236 218 200 198 196 189 191 173 174 176 175 165 152 132 117 130 167 178 171 171 169 165 171 169 151 154 163 155 150 129 180
202 186 204 216 6 320 311 273 257 274 245 263 254 256 265 241 230 237 243 222 208 194 189 189 188 178 176 151 121 84 79 72 106 149 139 169 180 178 173 174 172 174 168 175 172 175 164 165 196
218 205 178 176 81 240 57 286 279 249 273 277 273 263 252 250 244 238 237 237 208 208 176 171 164 169 158 154 158 160 170 159 172 154 146 170 167 193 180 175 181 180 176 178 181 180 186 159 183
220 163 164 137 162 22 281 311 273 307 278 262 256 265 272 244 243 247 233 237 228 157 155 151 143 152 152 164 170 157 138 122 122 127 157 181 170 189 186 184 179 181 185 182 183 182 186 185 183
144 73 41 49 75 284 182 184 255 206 220 267 254 269 285 249 69 62 71 114 113 107 115 132 148 163 160 161 151 168 166 151 141 152 184 186 186 181 188 191 187 187 189 183 185 193 188 196 199
113 87 0 334 357 237 237 202 246 261 252 233 273 282 240 145 113 109 107 92 89 133 150 148 152 148 143 150 167 171 173 174 181 178 191 178 175 180 195 189 188 189 189 186 186 187 196 194 193
190 160 168 194 199 249 91 237 254 236 287 256 281 300 177 198 171 145 139 140 143 112 97 117 140 142 166 167 168 172 182 169 174 180 182 192 198 198 182 191 188 186 185 185 185 192 198 200 203
199 210 160 90 46 55 226 292 298 273 271 359 330 286 267 201 205 224 184 141 136 136 137 142 142 128 166 179 166 183 185 175 190 194 184 192 176 177 178 191 194 192 190 188 189 196 199 198 201
164 153 82 350 159 239 255 259 233 274 161 16 1 342 268 197 170 302 306 318 347 155 177 163 162 167 176 187 178 182 189 196 195 182 197 192 190 178 179 185 191 190 193 192 191 200 200 193 198
151 188 186 148 165 183 244 255 224 225 146 96 4 351 30 136 174 245 286 304 237 197 153 168 189 190 197 201 196 199 199 201 203 195 202 201 181 186 187 189 188 191 191 189 190 194 188 197 194
330 219 180 171 230 233 159 256 279 73 90 96 45 2 359 60 168 214 216 185 111 234 200 216 236 232 224 215 204 214 216 201 200 204 203 189 197 186 191 183 190 195 196 190 195 192 193 197 198